Hourly Data Report for June 05, 2019

FISHER BRANCH (AUT)
MANITOBA
Current Station Operator: ECCC - MSC

51°05'00.100" N
97°33'16.200" W
253.00 m
50309J6
71442
WSZ

Download Data

Hourly Data (June 2019)
Hourly Data Report for June 5, 2019
TIME
LST
Temp Definition
°C
Dew Point Definition
°C
Rel Hum Definition
%
Precip. Amount Definition
mm

Wind Dir Definition
10's deg

Wind Spd Definition
km/h
Visibility Definition
km
Stn Press Definition
kPa
Hmdx Definition


Wind Chill Definition


Weather Definition


00:00 8.8 7.2 90 0.0 31 9   98.08     LegendNANA
01:00 7.2 6.0 93 0.0 31 5   98.09     LegendNANA
02:00 6.5 5.6 94 0.0 28 7   98.11     LegendNANA
03:00 5.6 4.7 94 0.0 29 10   98.14     LegendNANA
04:00 5.4 4.8 96 0.0 30 11   98.15     LegendNANA
05:00 5.5 4.8 96 0.0 29 11   98.17     LegendNANA
06:00 8.6 7.5 93 0.0 32 7   98.21     LegendNANA
07:00 11.8 8.5 80 0.0 33 6   98.24     LegendNANA
08:00 15.2 8.8 65 0.0 1 6   98.23     LegendNANA
09:00 18.1 9.1 56 0.0 5 6   98.22     LegendNANA
10:00 20.7 7.0 41 0.0 19 5   98.20     LegendNANA
11:00 21.1 4.3 33 0.0 30 5   98.20     LegendNANA
12:00 21.6 5.2 34 0.0 22 7   98.18     LegendNANA
13:00 23.2 6.0 33 0.0 11 7   98.10     LegendNANA
14:00 21.2 6.0 37 0.0 14 14   98.01     LegendNANA
15:00 20.8 5.0 35 0.0 16 3   98.09     LegendNANA
16:00 21.1 4.8 34 0.0 10 10   98.00     LegendNANA
17:00 21.7 5.2 34 0.0 13 24   97.92     LegendNANA
18:00 19.1 6.0 42 0.0 15 17   97.92     LegendNANA
19:00 17.5 6.5 48 0.0 35 5   98.01     LegendNANA
20:00 16.6 9.2 62 0.0 7 10   97.91     LegendNANA
21:00 14.1 9.0 71 0.0 7 10   97.95     LegendNANA
22:00 12.5 8.4 76 0.0 4 6   97.98     LegendNANA
23:00 12.3 8.8 79 0.0 4 5   97.98     LegendNANA

Notes on Data Quality.

Legend

  • E = Estimated
  • M = Missing
  • NA = Not Available*
  • [empty] = Indicates an unobserved value
Date modified: